Location: Complexul Astronomic Baia Mare
(47.6577°N, 23.5639°E)
Time: 06:55:43
(UTC+03:00)

ISS - Pass Details

Date: 29 May 2017
Orbit: 402 x 408 km, 51.6° (Epoch: 29 May)

Event Time Altitude Azimuth Distance (km) Brightness Sun altitude
Rises 00:14:40 0° 285° (WNW) 2,334 0.5 -19.1°
Reaches altitude 10° 00:16:50 10° 293° (WNW) 1,471 -0.5 -19.2°
Maximum altitude 00:19:58 40° 5° (N) 616 -2.5 -19.3°
Drops below altitude 10° 00:23:06 10° 77° (ENE) 1,467 -1.0 -19.4°
Enters shadow 00:23:24 - 78° (ENE) 1,583 -0.9 -19.5°
